Location: The Jewett Observatory
(46.7288°N, 117.1525°W)
Time: 20:02:57
(UTC-07:00)

Amateur Radio Satellites - All Passes

Search period start: 22 October 2014 19:32
Search period end: 23 October 2014 19:32
Location: The Jewett Observatory, 46.7288°N, 117.1525°W

Satellite Date Start Highest point End Downlink Frequencies (MHz)
Time Altitude Azimuth
HO-68 22 Oct 19:40:16 19:46:40 37° 59° (ENE) 19:53:05 435.675 MHz FM
SO-67 22 Oct 19:41:20 19:44:21 29° 264° (W) 19:47:24 435.3500 MHz FM
ISS 22 Oct 19:47:32 19:50:48 52° 213° (SSW) 19:54:04 145.800 FM
SO-50 22 Oct 20:21:38 20:25:13 20° 32° (NNE) 20:28:49 436.795 FM
STRAND 1 22 Oct 20:23:18 20:28:21 55° 290° (WNW) 20:33:22 ?
OPAL 22 Oct 20:24:17 20:25:31 11° 310° (NW) 20:26:45 ?
Oscar 11 22 Oct 20:30:50 20:33:56 19° 63° (ENE) 20:37:01 145.825 FM, Beacon 2401.500 USB
KITSAT 1 22 Oct 20:45:24 20:53:18 53° 46° (NE) 21:01:10 435.175 FM
ZACube-1 22 Oct 21:13:00 21:16:41 24° 65° (ENE) 21:20:19 437.345 MHz
UKube-1 22 Oct 21:21:45 21:26:04 70° 73° (ENE) 21:30:26 145.840 MHz, 145.915 MHz
HO-68 22 Oct 21:27:12 21:34:09 53° 259° (W) 21:41:10 435.675 MHz FM
FUNcube-1 22 Oct 21:57:16 22:01:47 62° 73° (ENE) 22:06:17 145.950 - 145.970 MHz USB
UOSAT-12 22 Oct 21:57:46 22:01:04 18° 30° (NNE) 22:04:19 437.025 FM, 437.400 FM
RS-15 22 Oct 21:59:28 22:09:21 41° 109° (ESE) 22:19:10 29.354 - 29.394 USB, Beacon 29.352 USB
SO-50 22 Oct 22:01:36 22:06:28 86° 52° (NE) 22:11:22 436.795 FM
Oscar 11 22 Oct 22:05:35 22:09:47 49° 261° (W) 22:14:00 145.825 FM, Beacon 2401.500 USB
KITSAT 1 22 Oct 22:41:05 22:48:38 45° 248° (WSW) 22:56:08 435.175 FM
ZACube-1 22 Oct 22:48:30 22:52:51 42° 262° (W) 22:57:11 437.345 MHz
UKube-1 22 Oct 23:00:42 23:02:45 13° 271° (W) 23:04:49 145.840 MHz, 145.915 MHz
FUNcube-1 22 Oct 23:35:44 23:38:33 16° 270° (W) 23:41:22 145.950 - 145.970 MHz USB
UOSAT-12 22 Oct 23:37:16 23:42:01 75° 51° (NE) 23:46:41 437.025 FM, 437.400 FM
SO-50 22 Oct 23:43:43 23:46:24 15° 251° (WSW) 23:49:05 436.795 FM
RS-15 23 Oct 00:10:12 00:21:07 68° 314° (NW) 00:32:05 29.354 - 29.394 USB, Beacon 29.352 USB
Oscar 10/S400 23 Oct 00:33:07 01:30:39 23° 234° (SW) 04:19:11 145.825 - 145.975 CW/USB, Beacon 145.810 USB
MaSat-1 23 Oct 00:40:30 00:44:40 90° 113° (ESE) 00:48:25 437.345 MHz
Oscar 19 23 Oct 01:00:53 01:02:48 12° 87° (E) 01:04:43 437.125 CW, 437.150 USB
UOSAT-12 23 Oct 01:18:41 01:21:35 16° 250° (WSW) 01:24:29 437.025 FM, 437.400 FM
Oscar 16 23 Oct 01:44:18 01:48:49 31° 95° (E) 01:53:19 437.025 USB, Beacon 2401.1428
AO-Echo 23 Oct 01:56:02 02:00:10 23° 92° (E) 02:04:18 ?
JAS-1B 23 Oct 01:56:36 02:02:38 38° 98° (E) 02:09:39 435.800 - 435.900 CW/SSB
Uribyol 2 23 Oct 02:00:45 02:04:29 20° 91° (E) 02:08:11 436.500 FM
ITAMSAT 1 23 Oct 02:06:09 02:10:01 21° 91° (E) 02:13:52 435.822 SSB
Gurwin Techsat 1B 23 Oct 02:15:00 02:17:36 14° 87° (E) 02:20:12 435.225 FM
MaSat-1 23 Oct 02:19:06 02:20:47 12° 315° (NW) 02:22:25 437.345 MHz
RS-15 23 Oct 02:26:19 02:35:54 33° 344° (NNW) 02:45:38 29.354 - 29.394 USB, Beacon 29.352 USB
TMSAT-1 23 Oct 02:27:42 02:30:09 13° 87° (E) 02:32:35 436.925 FM
Oscar 19 23 Oct 02:37:45 02:42:55 87° 105° (ESE) 02:48:02 437.125 CW, 437.150 USB
AO-27 23 Oct 02:50:26 02:55:32 50° 100° (E) 03:00:36 436.795 MHz FM
Oscar 16 23 Oct 03:23:31 03:28:15 38° 293° (WNW) 03:32:57 437.025 USB, Beacon 2401.1428
Sapphire 23 Oct 03:26:13 03:29:46 18° 105° (ESE) 03:33:19 437.095 MHz 1200 baud AX-25 AFSK
AO-Echo 23 Oct 03:34:04 03:39:15 56° 289° (WNW) 03:44:26 ?
Uribyol 2 23 Oct 03:39:13 03:44:23 62° 289° (WNW) 03:49:30 436.500 FM
ITAMSAT 1 23 Oct 03:44:45 03:49:54 59° 290° (WNW) 03:55:01 435.822 SSB
JAS-1B 23 Oct 03:47:22 03:53:21 45° 293° (WNW) 04:00:20 435.800 - 435.900 CW/SSB
PCSat 23 Oct 03:47:40 03:52:16 29° 110° (ESE) 03:56:53 145.825 MHz
Gurwin Techsat 1B 23 Oct 03:52:56 03:58:18 88° 285° (WNW) 04:03:37 435.225 FM
TMSAT-1 23 Oct 04:05:28 04:10:49 90° 284° (WNW) 04:16:07 436.925 FM
Oscar 19 23 Oct 04:18:40 04:21:33 15° 304° (WNW) 04:24:26 437.125 CW, 437.150 USB
AO-7 23 Oct 04:19:44 04:27:07 34° 96° (E) 04:34:27 29.400 - 29.500 MHz
OPAL 23 Oct 04:21:51 04:26:45 46° 66° (ENE) 04:31:36 ?
AO-27 23 Oct 04:30:30 04:34:46 26° 298° (WNW) 04:39:01 436.795 MHz FM
RS-15 23 Oct 04:42:29 04:52:17 35° 19° (NNE) 05:02:20 29.354 - 29.394 USB, Beacon 29.352 USB
Sapphire 23 Oct 05:07:08 05:12:32 77° 304° (NW) 05:18:00 437.095 MHz 1200 baud AX-25 AFSK
Uosat F 23 Oct 05:17:12 05:22:16 66° 102° (ESE) 05:27:16 435.120 FM
Uribyol 2 23 Oct 05:21:43 05:22:50 11° 308° (NW) 05:23:57 436.500 FM
ITAMSAT 1 23 Oct 05:27:42 05:28:20 10° 309° (NW) 05:28:58 435.822 SSB
PCSat 23 Oct 05:30:11 05:35:26 50° 310° (NW) 05:40:45 145.825 MHz
Gurwin Techsat 1B 23 Oct 05:34:32 05:37:31 15° 304° (NW) 05:40:29 435.225 FM
JAS-2 23 Oct 05:45:31 05:52:49 44° 96° (E) 06:00:13 435.800 - 435.900 CW/SSB, 435.910 FM
TMSAT-1 23 Oct 05:46:57 05:50:00 16° 304° (NW) 05:53:02 436.925 FM
OPAL 23 Oct 06:01:31 06:05:48 26° 264° (W) 06:10:05 ?
STRAND 1 23 Oct 06:03:20 06:08:07 42° 67° (ENE) 06:12:57 ?
Hamsat 23 Oct 06:05:49 06:09:33 31° 96° (E) 06:13:17 145.90 MHz
AO-7 23 Oct 06:12:12 06:20:22 63° 296° (WNW) 06:28:32 29.400 - 29.500 MHz
Sapphire 23 Oct 06:53:03 06:56:53 19° 326° (NW) 07:00:45 437.095 MHz 1200 baud AX-25 AFSK
RS-15 23 Oct 06:55:43 07:06:51 73° 49° (NE) 07:18:26 29.354 - 29.394 USB, Beacon 29.352 USB
Uosat F 23 Oct 06:57:01 07:00:34 20° 301° (WNW) 07:04:06 435.120 FM
SO-67 23 Oct 07:02:16 07:04:23 15° 91° (E) 07:06:29 435.3500 MHz FM
Saudisat 1A 23 Oct 07:06:47 07:08:48 13° 109° (ESE) 07:10:48 436.775 MHz
PCSat 23 Oct 07:17:13 07:20:11 15° 333° (NNW) 07:23:10 145.825 MHz
JAS-2 23 Oct 07:30:35 07:37:51 49° 294° (WNW) 07:45:17 435.800 - 435.900 CW/SSB, 435.910 FM
Hamsat 23 Oct 07:41:53 07:45:26 27° 293° (WNW) 07:48:59 145.90 MHz
STRAND 1 23 Oct 07:43:02 07:47:26 29° 265° (W) 07:51:53 ?
AO-7 23 Oct 08:06:28 08:11:36 18° 318° (NW) 08:16:45 29.400 - 29.500 MHz
SO-67 23 Oct 08:34:19 08:37:31 36° 289° (WNW) 08:40:42 435.3500 MHz FM
Saudisat 1A 23 Oct 08:43:19 08:47:43 84° 307° (NW) 08:52:10 436.775 MHz
MaSat-1 23 Oct 08:49:13 08:51:32 23° 52° (NE) 08:53:40 437.345 MHz
HO-68 23 Oct 08:51:58 08:57:56 27° 93° (E) 09:03:50 435.675 MHz FM
RS-15 23 Oct 09:08:40 09:18:30 38° 252° (WSW) 09:28:43 29.354 - 29.394 USB, Beacon 29.352 USB
JAS-2 23 Oct 09:18:08 09:21:12 13° 315° (NW) 09:24:18 435.800 - 435.900 CW/SSB, 435.910 FM
Oscar 11 23 Oct 09:50:39 09:54:10 24° 94° (E) 09:57:40 145.825 FM, Beacon 2401.500 USB
Saudisat 1A 23 Oct 10:24:56 10:27:58 18° 328° (NNW) 10:31:01 436.775 MHz
MaSat-1 23 Oct 10:25:32 10:26:56 13° 254° (WSW) 10:28:17 437.345 MHz
Sapphire 23 Oct 10:27:25 10:28:55 11° 19° (NNE) 10:30:26 437.095 MHz 1200 baud AX-25 AFSK
ZACube-1 23 Oct 10:35:05 10:38:53 30° 95° (E) 10:42:35 437.345 MHz
HO-68 23 Oct 10:39:02 10:46:10 67° 292° (WNW) 10:53:16 435.675 MHz FM
UKube-1 23 Oct 10:43:06 10:47:30 86° 104° (ESE) 10:51:52 145.840 MHz, 145.915 MHz
PCSat 23 Oct 10:49:33 10:52:19 14° 26° (NNE) 10:55:05 145.825 MHz
Oscar 10/S400 23 Oct 11:11:25 11:17:12 11° 149° (SSE) 11:22:19 145.825 - 145.975 CW/USB, Beacon 145.810 USB
KITSAT 1 23 Oct 11:19:24 11:25:00 21° 102° (ESE) 11:30:37 435.175 FM
FUNcube-1 23 Oct 11:19:56 11:24:16 88° 104° (ESE) 11:28:27 145.950 - 145.970 MHz USB
Oscar 11 23 Oct 11:26:30 11:30:27 36° 291° (WNW) 11:34:22 145.825 FM, Beacon 2401.500 USB
Oscar 16 23 Oct 11:30:15 11:30:39 10° 52° (NE) 11:31:02 437.025 USB, Beacon 2401.1428
Sapphire 23 Oct 12:09:18 12:14:10 32° 44° (NE) 12:19:00 437.095 MHz 1200 baud AX-25 AFSK
ZACube-1 23 Oct 12:11:33 12:15:14 28° 294° (WNW) 12:18:51 437.345 MHz
Oscar 19 23 Oct 12:19:33 12:23:43 25° 62° (ENE) 12:27:52 437.125 CW, 437.150 USB
UKube-1 23 Oct 12:21:13 12:23:02 12° 303° (WNW) 12:24:52 145.840 MHz, 145.915 MHz
SO-50 23 Oct 12:21:46 12:23:55 13° 108° (ESE) 12:26:05 436.795 FM
HO-68 23 Oct 12:28:24 12:32:37 17° 313° (NW) 12:36:49 435.675 MHz FM
PCSat 23 Oct 12:31:54 12:37:09 46° 49° (NE) 12:42:22 145.825 MHz
ISS 23 Oct 12:33:50 12:34:40 11° 132° (SE) 12:35:30 145.800 FM
AO-27 23 Oct 12:34:36 12:37:49 17° 57° (ENE) 12:41:02 436.795 MHz FM
JAS-1B 23 Oct 12:46:41 12:52:02 38° 65° (ENE) 12:57:14 435.800 - 435.900 CW/SSB
FUNcube-1 23 Oct 12:58:31 12:59:56 12° 303° (WNW) 13:01:21 145.950 - 145.970 MHz USB
Oscar 16 23 Oct 13:03:54 13:08:58 60° 71° (ENE) 13:14:03 437.025 USB, Beacon 2401.1428
KITSAT 1 23 Oct 13:11:13 13:19:18 87° 123° (ESE) 13:27:26 435.175 FM
AO-Echo 23 Oct 13:11:42 13:16:10 36° 66° (ENE) 13:20:47 ?
Uribyol 2 23 Oct 13:21:02 13:25:52 39° 67° (ENE) 13:30:43 436.500 FM
ITAMSAT 1 23 Oct 13:26:38 13:31:29 41° 67° (ENE) 13:36:23 435.822 SSB
AO-7 23 Oct 13:33:42 13:38:31 17° 40° (NE) 13:43:20 29.400 - 29.500 MHz
Gurwin Techsat 1B 23 Oct 13:38:09 13:42:41 30° 63° (ENE) 13:47:14 435.225 FM
TMSAT-1 23 Oct 13:50:26 13:54:54 29° 63° (ENE) 13:59:23 436.925 FM
Sapphire 23 Oct 13:52:34 13:57:50 52° 244° (WSW) 14:03:04 437.095 MHz 1200 baud AX-25 AFSK
UOSAT-12 23 Oct 13:54:47 13:55:53 11° 107° (ESE) 13:56:59 437.025 FM, 437.400 FM
Oscar 19 23 Oct 13:57:47 14:02:47 49° 260° (W) 14:07:47 437.125 CW, 437.150 USB
SO-50 23 Oct 13:59:14 14:03:45 85° 307° (NW) 14:08:26 436.795 FM
ISS 23 Oct 14:07:29 14:10:47 63° 149° (SSE) 14:14:06 145.800 FM
AO-27 23 Oct 14:11:26 14:16:40 83° 256° (WSW) 14:21:56 436.795 MHz FM
PCSat 23 Oct 14:15:38 14:20:25 32° 249° (WSW) 14:25:09 145.825 MHz
JAS-1B 23 Oct 14:37:32 14:42:51 33° 264° (W) 14:47:58 435.800 - 435.900 CW/SSB
Oscar 16 23 Oct 14:44:59 14:48:43 20° 269° (W) 14:52:28 437.025 USB, Beacon 2401.1428
AO-Echo 23 Oct 14:50:40 14:54:59 31° 265° (W) 14:59:27 ?
Uosat F 23 Oct 14:56:38 15:00:05 19° 59° (ENE) 15:03:34 435.120 FM
Uribyol 2 23 Oct 15:00:49 15:05:25 31° 265° (W) 15:10:03 436.500 FM
ITAMSAT 1 23 Oct 15:06:35 15:11:06 29° 265° (W) 15:15:39 435.822 SSB
KITSAT 1 23 Oct 15:08:36 15:15:42 32° 327° (NNW) 15:22:50 435.175 FM
Gurwin Techsat 1B 23 Oct 15:17:26 15:22:28 44° 262° (W) 15:27:33 435.225 FM
AO-7 23 Oct 15:21:36 15:29:39 59° 63° (ENE) 15:37:43 29.400 - 29.500 MHz
Saudisat 1A 23 Oct 15:28:14 15:32:09 30° 40° (NE) 15:36:02 436.775 MHz
TMSAT-1 23 Oct 15:29:33 15:34:37 45° 262° (W) 15:39:44 436.925 FM
UOSAT-12 23 Oct 15:30:33 15:35:12 78° 125° (SE) 15:39:56 437.025 FM, 437.400 FM
SO-50 23 Oct 15:41:42 15:45:02 19° 329° (NNW) 15:48:25 436.795 FM
ISS 23 Oct 15:44:27 15:47:38 40° 348° (NNW) 15:50:49 145.800 FM
AO-27 23 Oct 15:55:13 15:56:59 12° 274° (W) 15:58:46 436.795 MHz FM
JAS-2 23 Oct 16:02:09 16:06:57 25° 56° (NE) 16:12:14 435.800 - 435.900 CW/SSB, 435.910 FM
Uosat F 23 Oct 16:33:22 16:38:22 68° 257° (WSW) 16:43:25 435.120 FM
Hamsat 23 Oct 17:01:52 17:05:37 32° 68° (ENE) 17:09:21 145.90 MHz
Saudisat 1A 23 Oct 17:07:39 17:11:52 44° 240° (WSW) 17:16:04 436.775 MHz
KITSAT 1 23 Oct 17:08:32 17:14:02 19° 356° (N) 17:19:32 435.175 FM
UOSAT-12 23 Oct 17:12:11 17:15:53 22° 326° (NW) 17:19:38 437.025 FM, 437.400 FM
AO-7 23 Oct 17:15:21 17:22:47 36° 263° (W) 17:30:18 29.400 - 29.500 MHz
ISS 23 Oct 17:21:40 17:24:48 37° 9° (N) 17:27:57 145.800 FM
JAS-2 23 Oct 17:45:23 17:51:18 71° 258° (WSW) 17:58:05 435.800 - 435.900 CW/SSB, 435.910 FM
OPAL 23 Oct 18:07:24 18:12:22 63° 104° (ESE) 18:17:15 ?
STRAND 1 23 Oct 18:13:45 18:14:50 11° 86° (E) 18:15:56 ?
Hamsat 23 Oct 18:38:04 18:41:36 26° 266° (W) 18:45:08 145.90 MHz
ISS 23 Oct 18:58:23 19:01:44 82° 208° (SSW) 19:05:04 145.800 FM
KITSAT 1 23 Oct 19:06:01 19:12:39 27° 26° (NNE) 19:19:15 435.175 FM
SO-50 23 Oct 19:08:33 19:10:19 12° 19° (NNE) 19:12:06 436.795 FM
SO-67 23 Oct 19:09:04 19:12:30 74° 258° (WSW) 19:15:57 435.3500 MHz FM
